EW9927 Weather Reports


time (UTC)temp
C
wind
direction
speed
KPH
gust
KPH
rain 1hr
cm
rain 24hr
cm
rain mn
cm
humidity
%
barometer
mb
20260505214136 29 166 6.4 12.9 0.00 0.00 0.00 73 1005.8
20260505213630 30 117 4.8 17.7 0.00 0.00 0.00 73 1005.8
20260505213123 30 175 3.2 17.7 0.00 0.00 0.00 72 1005.8
20260505212623 29 161 1.6 14.5 0.00 0.00 0.00 73 1005.8
20260505212115 29 341 4.8 14.5 0.00 0.00 0.00 73 1005.8
20260505211608 30 115 0.0 11.3 0.00 0.00 0.00 72 1005.8
20260505211101 30 210 6.4 11.3 0.00 0.00 0.00 72 1005.8
20260505210601 30 115 6.4 14.5 0.00 0.00 0.00 72 1006.1
20260505210055 30 151 6.4 16.1 0.00 0.00 0.00 72 1006.1
20260505205548 29 200 6.4 14.5 0.00 0.00 0.00 73 1006.1
20260505205041 29 164 0.0 14.5 0.00 0.00 0.00 73 1006.1
20260505204539 30 181 1.6 14.5 0.00 0.00 0.00 73 1006.1
20260505204033 30 271 8.0 14.5 0.00 0.00 0.00 73 1006.1
20260505203526 29 99 1.6 11.3 0.00 0.00 0.00 73 1006.4
20260505203021 29 175 0.0 11.3 0.00 0.00 0.00 73 1006.4
20260505202510 30 143 0.0 14.5 0.00 0.00 0.00 73 1006.4
20260505202003 29 122 4.8 14.5 0.00 0.00 0.00 74 1006.8
20260505201455 29 183 0.0 9.7 0.00 0.00 0.00 73 1006.8
20260505200948 29 182 1.6 9.7 0.00 0.00 0.00 73 1006.8
20260505200445 30 177 6.4 12.9 0.00 0.00 0.00 72 1006.8
20260505195939 29 146 1.6 20.9 0.00 0.00 0.00 73 1006.8
20260505195434 29 141 4.8 20.9 0.00 0.00 0.00 73 1006.8
20260505194926 29 133 1.6 11.3 0.00 0.00 0.00 74 1007.1
20260505194417 29 173 1.6 11.3 0.00 0.00 0.00 74 1007.1
20260505193911 30 210 6.4 9.7 0.00 0.00 0.00 72 1007.1
20260505193402 30 129 3.2 9.7 0.00 0.00 0.00 72 1007.1
20260505192855 29 198 0.0 11.3 0.00 0.00 0.00 73 1007.1
20260505192354 29 144 6.4 11.3 0.00 0.00 0.00 74 1007.1
20260505191846 28 219 4.8 11.3 0.00 0.00 0.00 75 1007.5
20260505191607 28 157 4.8 11.3 0.00 0.00 0.00 75 1007.5
20260505190835 28 235 3.2 11.3 0.00 0.00 0.00 76 1007.5
20260505190331 27 109 0.0 11.3 0.00 0.00 0.00 78 1007.5
20260505185823 28 172 3.2 11.3 0.00 0.00 0.00 77 1007.1
20260505185318 28 203 6.4 11.3 0.00 0.00 0.00 75 1007.5
20260505184810 28 160 0.0 11.3 0.00 0.00 0.00 74 1007.5
20260505184529 28 179 0.0 6.4 0.00 0.00 0.00 75 1007.5
20260505183803 28 94 1.6 11.3 0.00 0.00 0.00 77 1007.5
20260505183256 28 170 4.8 11.3 0.00 0.00 0.00 76 1007.5
20260505182750 28 130 1.6 14.5 0.00 0.00 0.00 76 1007.5
20260505182242 27 159 0.0 14.5 0.00 0.00 0.00 77 1007.5
20260505181733 27 117 0.0 6.4 0.00 0.00 0.00 78 1007.5
20260505181226 27 141 1.6 11.3 0.00 0.00 0.00 77 1007.5
20260505180942 28 140 4.8 11.3 0.00 0.00 0.00 77 1007.5
20260505180219 28 164 0.0 11.3 0.00 0.00 0.00 76 1007.8
20260505175713 28 189 0.0 20.9 0.00 0.00 0.00 76 1007.8
20260505175430 27 155 6.4 14.5 0.00 0.00 0.00 78 1007.8
20260505174657 27 121 0.0 9.7 0.00 0.00 0.00 79 1007.8
20260505174156 27 159 4.8 11.3 0.00 0.00 0.00 79 1007.8
20260505173648 27 193 3.2 14.5 0.00 0.00 0.00 79 1008.1
20260505173408 27 111 8.0 14.5 0.00 0.00 0.00 78 1008.1
20260505172634 27 148 0.0 9.7 0.00 0.00 0.00 78 1008.1
20260505172134 27 227 0.0 12.9 0.00 0.00 0.00 78 1007.8
20260505171627 27 120 1.6 12.9 0.00 0.00 0.00 79 1007.8
20260505171119 27 171 0.0 6.4 0.00 0.00 0.00 79 1008.1
20260505170831 27 141 0.0 6.4 0.00 0.00 0.00 80 1008.1
20260505170113 27 149 0.0 9.7 0.00 0.00 0.00 80 1008.1
20260505165604 26 212 0.0 9.7 0.00 0.00 0.00 80 1008.1
20260505165059 26 170 0.0 6.4 0.00 0.00 0.00 80 1008.1
20260505164551 26 167 0.0 6.4 0.00 0.00 0.00 80 1008.1
20260505164309 26 286 4.8 6.4 0.00 0.00 0.00 81 1008.1
20260505163542 26 140 0.0 14.5 0.00 0.00 0.00 82 1008.1
20260505163033 26 123 0.0 14.5 0.00 0.00 0.00 82 1008.1
20260505162525 26 160 3.2 14.5 0.00 0.00 0.00 81 1008.1
20260505162023 26 222 0.0 14.5 0.00 0.00 0.00 80 1008.1
20260505161517 26 197 0.0 9.7 0.00 0.00 0.00 79 1007.8
20260505161010 26 181 3.2 12.9 0.00 0.00 0.00 79 1007.8
20260505160505 26 168 3.2 12.9 0.00 0.00 0.00 80 1007.8
20260505152920 26 149 0.0 11.3 0.00 0.00 0.00 81 1007.8
20260505152414 26 154 0.0 11.3 0.00 0.00 0.00 82 1007.8
20260505151905 26 158 1.6 6.4 0.00 0.00 0.00 82 1007.8
20260505151359 25 176 0.0 9.7 0.00 0.00 0.00 82 1007.8
20260505151109 25 107 0.0 12.9 0.00 0.00 0.00 83 1007.8
20260505150346 25 143 0.0 12.9 0.00 0.00 0.00 82 1007.8
20260505140223 25 128 0.0 11.3 0.00 0.00 0.00 84 1007.5
20260505130115 23 153 0.0 3.2 0.00 0.00 0.00 87 1007.5
20260505124559 23 118 0.0 6.4 0.00 0.00 0.00 87 1007.5
20260505124052 23 146 0.0 6.4 0.00 0.00 0.00 87 1007.5
20260505123547 23 107 0.0 4.8 0.00 0.00 0.00 87 1007.5
20260505123043 23 75 0.0 4.8 0.00 0.00 0.00 88 1007.5
20260505122538 23 166 0.0 6.4 0.00 0.00 0.00 88 1007.1
20260505122030 23 156 0.0 6.4 0.00 0.00 0.00 88 1007.1
20260505121522 23 174 0.0 1.6 0.00 0.00 0.00 88 1007.1
20260505121022 22 127 0.0 1.6 0.00 0.00 0.00 88 1007.1
20260505120515 23 139 0.0 0.0 0.00 0.00 0.00 88 1006.8
20260505120008 23 130 0.0 1.6 0.00 0.00 0.00 88 1006.8
20260505115503 22 134 0.0 1.6 0.00 0.00 0.00 88 1006.8
20260505114959 22 169 0.0 1.6 0.00 0.00 0.00 88 1006.8
20260505114452 23 141 0.0 9.7 0.00 0.00 0.00 88 1007.1
20260505113946 23 126 0.0 9.7 0.00 0.00 0.00 88 1007.1
20260505113439 23 134 0.0 6.4 0.00 0.00 0.00 87 1007.1
20260505112935 22 200 0.0 3.2 0.00 0.00 0.00 88 1007.1
20260505112430 22 152 0.0 1.6 0.00 0.00 0.00 88 1006.8
20260505111922 22 159 0.0 6.4 0.00 0.00 0.00 88 1007.1
20260505111415 22 180 0.0 6.4 0.00 0.00 0.00 88 1006.8
20260505110914 22 138 0.0 1.6 0.00 0.00 0.00 88 1006.8
20260505110406 22 131 0.0 1.6 0.00 0.00 0.00 88 1006.8
20260505110125 22 140 0.0 1.6 0.00 0.00 0.00 88 1006.8
20260505101809 22 179 0.0 6.4 0.00 0.00 0.00 87 1007.1
20260505101301 22 150 0.0 1.6 0.00 0.00 0.00 87 1007.1
20260505100758 22 138 0.0 1.6 0.00 0.00 0.00 87 1007.1
20260505100252 22 155 0.0 1.6 0.00 0.00 0.00 87 1007.5
20260505100009 22 158 0.0 1.6 0.00 0.00 0.00 87 1007.1
20260505095502 22 153 0.0 1.6 0.00 0.00 0.00 87 1007.1
20260505094958 22 136 0.0 1.6 0.00 0.00 0.00 87 1006.8
20260505094233 22 132 0.0 4.8 0.00 0.00 0.00 87 1006.8
20260505093725 22 154 0.0 4.8 0.00 0.00 0.00 87 1007.1
20260505093219 22 70 0.0 1.6 0.00 0.00 0.00 87 1007.1
20260505092717 22 151 0.0 1.6 0.00 0.00 0.00 87 1007.1
20260505092209 22 128 0.0 1.6 0.00 0.00 0.00 86 1007.1
20260505091702 22 146 0.0 1.6 0.00 0.00 0.00 87 1007.5
20260505091157 22 144 0.0 1.6 0.00 0.00 0.00 87 1007.5
20260505090647 22 153 0.0 1.6 0.00 0.00 0.00 87 1007.5
20260505090140 22 121 0.0 1.6 0.00 0.00 0.00 87 1007.5
20260505085633 22 141 0.0 4.8 0.00 0.00 0.00 87 1007.5
20260505085125 22 147 0.0 4.8 0.00 0.00 0.00 87 1007.5
20260505084623 22 151 0.0 1.6 0.00 0.00 0.00 87 1007.5
20260505084118 22 133 0.0 3.2 0.00 0.00 0.00 87 1007.5
20260505083608 22 108 3.2 3.2 0.00 0.00 0.00 87 1007.5
20260505083101 22 138 0.0 1.6 0.00 0.00 0.00 87 1007.5
20260505082600 22 154 0.0 1.6 0.00 0.00 0.00 87 1007.5
20260505082053 22 147 0.0 1.6 0.00 0.00 0.00 87 1007.5
20260505081546 22 127 0.0 3.2 0.00 0.00 0.00 86 1007.5
20260505081042 22 128 0.0 4.8 0.00 0.00 0.00 86 1007.8
20260505080538 22 220 0.0 4.8 0.00 0.00 0.00 86 1007.8
20260505080031 22 135 0.0 4.8 0.00 0.00 0.00 86 1007.8
20260505075525 22 225 3.2 4.8 0.00 0.00 0.00 86 1007.8
20260505075017 22 146 0.0 4.8 0.00 0.00 0.00 86 1007.8
20260505074519 22 151 0.0 4.8 0.00 0.00 0.00 85 1007.8
20260505074010 22 278 1.6 4.8 0.00 0.00 0.00 85 1007.8
20260505073502 22 135 0.0 4.8 0.00 0.00 0.00 85 1007.8
20260505072957 22 188 0.0 3.2 0.00 0.00 0.00 85 1007.8
20260505072711 22 183 0.0 6.4 0.00 0.00 0.00 85 1007.8
20260505071947 22 114 0.0 6.4 0.00 0.00 0.00 85 1007.8
20260505071442 22 148 0.0 6.4 0.00 0.00 0.00 85 1007.8
20260505070932 22 151 0.0 6.4 0.00 0.00 0.00 85 1007.8
20260505065925 22 162 0.0 3.2 0.00 0.00 0.00 85 1008.1
20260505065417 22 126 0.0 4.8 0.00 0.00 0.00 85 1008.1
20260505064910 22 132 0.0 4.8 0.00 0.00 0.00 84 1008.1
20260505064407 22 138 1.6 6.4 0.00 0.00 0.00 84 1008.1
20260505063853 22 164 1.6 6.4 0.00 0.00 0.00 84 1008.5
20260505063605 22 139 0.0 3.2 0.00 0.00 0.00 84 1008.5
20260505062844 22 144 0.0 4.8 0.00 0.00 0.00 84 1008.5
20260505062332 22 120 0.0 4.8 0.00 0.00 0.00 84 1008.5
20260505061818 22 153 0.0 3.2 0.00 0.00 0.00 84 1008.8
20260505060805 22 187 0.0 1.6 0.00 0.00 0.00 83 1008.8
20260505060259 22 141 0.0 3.2 0.00 0.00 0.00 83 1008.8
20260505055803 22 143 0.0 3.2 0.00 0.00 0.00 83 1008.8
20260505055516 22 140 0.0 3.2 0.00 0.00 0.00 83 1008.8
20260505054747 22 208 0.0 6.4 0.00 0.00 0.00 83 1008.8
20260505054243 22 165 0.0 6.4 0.00 0.00 0.00 82 1008.8
20260505053739 22 174 3.2 4.8 0.00 0.00 0.00 82 1008.8
20260505053231 22 141 0.0 1.6 0.00 0.00 0.00 82 1009.1
20260505052949 22 122 0.0 1.6 0.00 0.00 0.00 82 1009.1
20260505052220 22 148 0.0 1.6 0.00 0.00 0.00 82 1009.1
20260505051710 22 135 0.0 4.8 0.00 0.00 0.00 82 1009.1
20260505051206 22 123 1.6 4.8 0.00 0.00 0.00 82 1009.1
20260505050659 22 152 0.0 3.2 0.00 0.00 0.00 81 1009.1
20260505050412 22 149 0.0 3.2 0.00 0.00 0.00 81 1009.1
20260505041553 22 150 4.8 9.7 0.00 0.00 0.00 79 1009.1
20260505041048 22 129 0.0 9.7 0.00 0.00 0.00 79 1009.1
20260505040540 22 139 0.0 4.8 0.00 0.00 0.00 79 1009.1
20260505040036 22 150 0.0 6.4 0.00 0.00 0.00 78 1009.5
20260505035526 22 181 1.6 9.7 0.00 0.00 0.00 78 1009.5
20260505034511 23 137 0.0 9.7 0.00 0.00 0.00 77 1009.5
20260505034005 23 135 1.6 6.4 0.00 0.00 0.00 77 1009.5
20260505033502 23 152 0.0 9.7 0.00 0.00 0.00 77 1009.5
20260505032957 23 169 3.2 12.9 0.00 0.00 0.00 77 1009.5
20260505032451 23 122 3.2 12.9 0.00 0.00 0.00 77 1009.5
20260505031945 23 160 4.8 11.3 0.00 0.00 0.00 76 1009.5
20260505031437 23 192 4.8 11.3 0.00 0.00 0.00 76 1009.5
20260505030930 23 167 3.2 11.3 0.00 0.00 0.00 76 1009.5
20260505030424 23 180 0.0 6.4 0.00 0.00 0.00 76 1009.5
20260505025918 23 240 0.0 6.4 0.00 0.00 0.00 76 1009.5
20260505025416 23 134 3.2 4.8 0.00 0.00 0.00 75 1009.5
20260505024908 23 151 0.0 9.7 0.00 0.00 0.00 75 1009.8
20260505024402 23 132 0.0 9.7 0.00 0.00 0.00 75 1009.5
20260505023351 23 130 0.0 4.8 0.00 0.00 0.00 75 1009.5
20260505022845 23 130 0.0 6.4 0.00 0.00 0.00 75 1009.5
20260505022339 23 111 1.6 9.7 0.00 0.00 0.00 75 1009.1
20260505021833 23 134 0.0 9.7 0.00 0.00 0.00 74 1009.1
20260505021330 23 183 0.0 11.3 0.00 0.00 0.00 74 1009.1
20260505020822 23 138 0.0 11.3 0.00 0.00 0.00 74 1009.1
20260505020314 24 152 0.0 3.2 0.00 0.00 0.00 74 1009.1
20260505015805 24 167 3.2 3.2 0.00 0.00 0.00 74 1009.5
20260505015305 24 154 1.6 3.2 0.00 0.00 0.00 73 1009.1
20260505014756 24 176 0.0 9.7 0.00 0.00 0.00 73 1009.1
20260505014248 24 160 0.0 9.7 0.00 0.00 0.00 74 1009.1
20260505013739 24 148 0.0 3.2 0.00 0.00 0.00 73 1009.1
20260505013238 24 150 0.0 3.2 0.00 0.00 0.00 73 1009.1
20260505012731 24 145 0.0 1.6 0.00 0.00 0.00 73 1009.1
20260505012223 24 141 0.0 3.2 0.00 0.00 0.00 73 1008.8
20260505011216 24 143 0.0 9.7 0.00 0.00 0.00 72 1009.1
20260505010709 24 155 0.0 6.4 0.00 0.00 0.00 72 1009.1
20260505010202 24 131 0.0 6.4 0.00 0.00 0.00 72 1008.8
20260505005653 24 197 0.0 11.3 0.00 0.00 0.00 71 1008.8
20260505005153 25 177 0.0 11.3 0.00 0.00 0.00 71 1008.8
20260505004647 25 159 3.2 4.8 0.00 0.00 0.00 71 1008.8
20260505004138 25 138 3.2 6.4 0.00 0.00 0.00 70 1008.8
20260505003631 25 152 0.0 9.7 0.00 0.00 0.00 70 1008.8
20260505003130 25 234 6.4 9.7 0.00 0.00 0.00 70 1008.8
20260505002622 25 135 1.6 6.4 0.00 0.00 0.00 69 1008.8
20260505002116 25 111 1.6 11.3 0.00 0.00 0.00 69 1008.8
20260505001607 25 112 3.2 11.3 0.00 0.00 0.00 68 1008.5
20260505001107 26 182 0.0 14.5 0.00 0.00 0.00 68 1008.8
20260505000559 26 178 4.8 14.5 0.00 0.00 0.00 68 1008.8
20260505000051 26 143 4.8 11.3 0.00 0.00 0.00 68 1008.8
20260504235543 26 173 3.2 11.3 0.00 0.00 0.00 68 1008.8
20260504235039 26 138 0.0 11.3 0.00 0.00 0.00 68 1009.1
20260504234531 26 127 0.0 11.3 0.00 0.00 0.00 68 1009.1
20260504234025 26 173 0.0 9.7 0.00 0.00 0.00 68 1009.1
20260504233517 26 88 0.0 11.3 0.00 0.00 0.00 67 1009.1
20260504233013 26 152 0.0 11.3 0.00 0.00 0.00 67 1009.1
20260504232505 26 144 0.0 11.3 0.00 0.00 0.00 67 1009.1
20260504231957 26 146 0.0 9.7 0.00 0.00 0.00 67 1009.1
20260504231449 26 211 3.2 11.3 0.00 0.00 0.00 67 1009.1
20260504230949 26 199 6.4 11.3 0.00 0.00 0.00 67 1009.1
20260504225932 26 118 0.0 9.7 0.00 0.00 0.00 66 1009.5
20260504225424 27 106 3.2 6.4 0.00 0.00 0.00 65 1009.5
20260504224921 27 197 3.2 14.5 0.00 0.00 0.00 65 1009.5
20260504224416 26 119 3.2 14.5 0.00 0.00 0.00 66 1009.5
20260504223907 27 234 0.0 11.3 0.00 0.00 0.00 65 1009.5
20260504223400 27 160 3.2 12.9 0.00 0.00 0.00 65 1009.5
20260504222900 27 145 0.0 12.9 0.00 0.00 0.00 65 1009.5
20260504222620 27 149 3.2 9.7 0.00 0.00 0.00 64 1009.5
20260504222106 27 114 1.6 6.4 0.00 0.00 0.00 65 1009.8
20260504221340 27 111 1.6 9.7 0.00 0.00 0.00 64 1009.8
20260504220837 27 200 3.2 9.7 0.00 0.00 0.00 64 1009.8
20260504220331 27 170 0.0 9.7 0.00 0.00 0.00 64 1009.8
20260504215825 27 163 3.2 9.7 0.00 0.00 0.00 63 1010.2
20260504215319 27 176 1.6 9.7 0.00 0.00 0.00 63 1009.8
20260504214816 27 159 3.2 6.4 0.00 0.00 0.00 63 1010.2